Other Surface Observations
Issued by NWS

Current Version | Previous Version | Text Only | Print | Product List | Glossary On
Versions: 1 2 3 4 5 6 7 8 9 10 11 12 13 14 15 16 17 18 19 20 21 22 23 24 25 26 27 28 29 30 31 32 33 34 35 36 37 38 39 40 41 42 43 44 45 46 47 48 49 50
000
SXUS52 KTAE 231505
OSOTAE
OSOTAE
North Florida/South Alabama/Southwest Georgia Weather Roundup
National Weather Service Tallahassee Florida
1000 AM EST MON JAN 23 2017

Note: "fair" indicates few or no clouds below 12,000 feet with no
significant weather and/or obstructions to visibility.

!FLZ017-115-028-034-025-231600
...North Florida...

CITY           SKY/WX    TMP DP  RH WIND       PRES   REMARKS
TALLAHASSEE    CLOUDY    60  53  77 W23G38    29.54R
APALACHICOLA   CLOUDY    65  55  70 NW30G39   29.58R
PERRY          CLOUDY    62  52  69 W14G28    29.54R
CROSS CITY     CLOUDY    63  52  67 W18G31    29.55R
JACKSONVILLE   PTSUNNY   61  48  62 W23G33    29.43R
$$

!FLZ112-006-005-002-011-231600
...Florida Panhandle...

CITY           SKY/WX    TMP DP  RH WIND       PRES   REMARKS
MARIANNA       CLOUDY    59  54  83 W20G28    29.55R
BONIFAY        NOT AVBL
PANAMA CITY NW PTSUNNY   61  52  72 W20G28    29.60R
TYNDALL AFB    MOSUNNY   62  53  71 NW29      29.60R
TYND DRONE APT FAIR      62  54  76 W16G29    29.61R
DE FUNIAK SPR  CLOUDY    56  50  79 W10G21    29.63R
EGLIN AFB      PTSUNNY   58  49  72 NW23G33   29.64R
DESTIN         CLOUDY    61  52  72 NW12G23   29.65R
HURLBURT       CLOUDY    58  41  54 NW18G32   29.65R
CRESTVIEW      CLOUDY    57  49  74 NW20G25   29.65R
PENSACOLA      CLOUDY    57  47  69 NW17      29.68R
$$

!ALZ063-066-231600
...South Alabama...

CITY           SKY/WX    TMP DP  RH WIND       PRES   REMARKS
DOTHAN         CLOUDY    57  54  89 W23       29.57R
OZARK CAIRNS   CLOUDY    56  53  90 W15G24    29.56R
FT RUCKER HELI CLOUDY    57  52  83 W20G32    29.56R
RUCKER HELI 3  NOT AVBL
RUCKER HELI 2  CLOUDY    57  52  83 W10G21      N/A
FLORALA APT    LGT RAIN  55  49  80 NW10G22   29.64R
ANDALUSIA      LGT RAIN  56  50  80 NW20G30   29.62R
TROY           CLOUDY    55  51  86 W15G28    29.57R
EUFALA         CLOUDY    58  53  84 NW15G28   29.48R
MOBILE         PTSUNNY   58  47  66 NW10G17   29.74R
$$

!GAZ120>161-231600
...Southwest and South Central Georgia...

CITY           SKY/WX    TMP DP  RH WIND       PRES   REMARKS
THOMASVILLE    CLOUDY    59  55  88 W13G23    29.49R
BAINBRIDGE     PTSUNNY   59  54  82 W18G25    29.52R
MOODY AFB      LGT RAIN  54  52  94 W9        29.45
VALDOSTA       CLOUDY    55  52  89 W17G23    29.47R
MOULTRIE       CLOUDY    55  54  94 W16G22    29.48R
BLAKELY        CLOUDY    61  54  77 W9G20     29.51R
ALBANY         LGT RAIN  57  55  93 W14       29.47R FOG
TIFTON         DRIZZLE   55  55 100 W13       29.43R
FITZGERALD     CLOUDY    57  55  94 W8G20     29.42R FOG
CORDELE        DRIZZLE   59  56  92 W15G21    29.42R
AMERICUS       CLOUDY    55  55 100 W16G23    29.44R
HOMERVILLE       N/A     54  52  94 W15G23    29.44R
$$

!GMZ750-755-770-775-231600
...Coastal and Buoy Obs...

STATION/POSITION TIME  TEMP    WIND        PRES    VSBY  WAVE
                       AIR SEA DIR/SP/G                  HT/PER
                 (UTC) (F)     (DEG/KT/KT) (MB)    (MI)  (FT/S)
KEATON BEACH     1500   62     280/ 21/ 26 1000.3R
CEDAR KEY        NOT AVBL
C TOWER          1500   63     310/ 35/ 40 1002.0R
APALACHICOLA BUO NOT AVBL
PANAMA CITY BUOY 1450   67 74              1003.8         16/10
MOBILE BUOY      NOT AVBL
ORANGE BCH AL BU NOT AVBL
$$




USA.gov is the U.S. government's official web portal to all federal, state and local government web resources and services.